Weather in Auch

France     43°38′41″N   0°35′16″E
temp.,
°C
wind,
m/s
gust,
m/s
humid.,
%
clouds,
%
prec.,
mm/h
press.,
hPa
HPBL,
m
7 may, fri
fri723:00+13wsw3584100 0.1 1017182
02:00+12wsw4995100 0.6 1017390
05:00+13wsw61392100 0.6 1016683
08:00+13w61194100 0.8 1018795
11:00+12wnw2594100 0.8 1020352
14:00+14w358581 0.8 1020665
17:00+18wnw4570100 0.1 10181184
20:00+17w1177100 0.2 101827
8 may, sat
sat823:00+13ese118794 0.0 101810
02:00+12ese22905 0.0 101717
05:00+11ese22925 0.0 101627
08:00+12ese499179 0.0 1016214
11:00+19ese6106786 0.0 1014480
14:00+24ese79525 0.0 1011702
17:00+25ese795792 0.0 1009785
20:00+19ese8137771 0.0 1008386
9 may, sun
sun923:00+15ese8158726 0.0 1007304
02:00+15ese81589100 0.0 1006322
05:00+14ese8158759 0.0 1004328
08:00+14ese81584100 0.0 1003279
11:00+18se71173100 0.0 1004392
14:00+15n1191100 2.2 1007199
17:00+18e5882100 0.8 1003499
20:00+17se6985100 1.8 1002337
10 may, mon
mon1023:00+11nw399798 3.9 1007553
02:00+11w3695100 4.4 1010367
05:00+10wnw1196100 0.3 101185
08:00+10e2495100 0.6 1011163
11:00+13se238690 0.1 1011515
14:00+15ene227698 0.4 1009400
17:00+17ene226480 2.3 1008727
20:00+15ese347744 2.4 1007122
11 may, tue
tue1123:00+10wnw61093100 1.1 1010284
02:00+10wsw3698100 3.9 1010181
05:00+8wsw4119480 0.1 1010340
08:00+10wnw61095100 0.3 1011781
11:00+9w71095100 4.4 10141000
14:00+11w71084100 7.2 10151124
17:00+12w71080100 1.6 10151350
20:00+10w71285100 2.8 1017682